Regional Weather Roundup
Issued by NWS

Home | Current Version | Previous Version | Text Only | Print | Product List | Glossary Off
Versions: 1 2 3 4 5 6 7 8 9 10 11 12 13 14 15 16 17 18 19 20 21 22 23 24 25 26 27 28 29 30 31 32 33 34 35 36 37 38 39 40 41 42 43 44 45 46 47 48 49 50

000
ASUS43 KLOT 250000
RWRIL

ILLINOIS REGIONAL WEATHER ROUNDUP
NATIONAL WEATHER SERVICE CHICAGO/ROMEOVILLE IL
700 PM CDT FRI OCT 24 2014

NOTE: "FAIR" INDICATES FEW OR NO CLOUDS BELOW 12,000 FEET WITH NO
SIGNIFICANT WEATHER AND/OR OBSTRUCTIONS TO VISIBILITY.

* THESE STATIONS ARE NOT UNDER NWS QUALITY CONTROL. THEY ALSO MAY NOT
  REPORT WEATHER SUCH AS PRECIPITATION OR FOG.

ILZ001-002-007-009-015-016-024-250100-
NORTHWEST ILLINOIS

CITY           SKY/WX    TMP DP  RH WIND       PRES   REMARKS
MOLINE         CLOUDY    66  54  65 W10       29.93R
6HR MIN TEMP:  64; 6HR MAX TEMP:  70;

STERLING*      CLOUDY    63  46  55 S3        29.94R
$$

ILZ003-004-008-010-011-017-018-250100-
NORTH CENTRAL ILLINOIS

CITY           SKY/WX    TMP DP  RH WIND       PRES   REMARKS
ROCKFORD       MOCLDY    57  47  69 S8        29.95S
6HR MIN TEMP:  54; 6HR MAX TEMP:  64;

$$

ILZ005-006-012>014-019>023-250100-
NORTHEAST ILLINOIS

CITY           SKY/WX    TMP DP  RH WIND       PRES   REMARKS
CHICAGO-OHARE  MOCLDY    61  46  57 S6        29.94S
6HR MIN TEMP:  60; 6HR MAX TEMP:  67;

CHICAGO-MIDWAY MOCLDY    65  46  50 CALM      29.95S
6HR MIN TEMP:  63; 6HR MAX TEMP:  68;

AURORA         PTCLDY    55  44  66 CALM      29.95F
6HR MIN TEMP:  54; 6HR MAX TEMP:  69;

WAUKEGAN       MOCLDY    50  48  93 CALM      29.94S FOG
6HR MIN TEMP:  50; 6HR MAX TEMP:  62;

DUPAGE AIRPORT PTCLDY    58  47  66 S5        29.94F
6HR MIN TEMP:  58; 6HR MAX TEMP:  69;

WHEELING       MOCLDY    59  45  59 S3        29.96S
6HR MIN TEMP:  59; 6HR MAX TEMP:  69;

NORTHERLY ISL    N/A     64  46  52 S6          N/A
$$

LMZ740>746-250100-
SOUTHERN LAKE MICHIGAN

STATION/POSITION SKY/WX   TEMP    WIND        PRES    VSBY  WAVE
                          AIR SEA DIR/SP/G                  HT/PER
                          (F)     (DEG/KT/KT) (MB)    (MI)  (FT/S)
SOUTHERN BUOY              53 54  140/  6/  6 1014.8F         0
WAUKEGAN HARBOR            54        CALM       N/A
HARRISON CRIB              58     160/ 10/ 13   N/A
BURNHAM HARBOR             64     200/  4/  8   N/A
CALUMET HARBOR             63     160/  3/  4 1013.2F
MICHIGAN CITY              59      90/  2/  2   N/A
$$

ILZ025>027-034>036-040-047-049-050-058-095>099-250100-
WEST-CENTRAL ILLINOIS

CITY           SKY/WX    TMP DP  RH WIND       PRES   REMARKS
QUINCY         MOCLDY    65  55  70 S9        29.94F
$$

ILZ028>032-037-038-041>044-048-051>054-059>061-250100-
CENTRAL ILLINOIS

CITY           SKY/WX    TMP DP  RH WIND       PRES   REMARKS
DECATUR        MOCLDY    58  53  84 S7        30.01S
PEORIA         MOCLDY    62  51  67 SE7       29.96F
6HR MIN TEMP:  61; 6HR MAX TEMP:  66;

SPRINGFIELD    MOCLDY    60  50  69 S7        29.98F
6HR MIN TEMP:  59; 6HR MAX TEMP:  71;

TAYLORVILLE    NOT AVBL
$$

ILZ033-039-045-046-055>057-062-063-250100-
EAST-CENTRAL ILLINOIS

CITY           SKY/WX    TMP DP  RH WIND       PRES   REMARKS
CHAMPAIGN      PTCLDY    55  53  93 SW7       30.01S
MATTOON        PTCLDY    59  53  80 SW5       30.01F
$$

ILZ079-100>102-250100-
SOUTHWEST ILLINOIS

CITY           SKY/WX    TMP DP  RH WIND       PRES   REMARKS
BELLEVILLE     PTCLDY    61  51  70 S3        30.01R
CAHOKIA*       PTCLDY    65  51  60 S5        30.01R
$$

ILZ064>066-069>071-074>076-080>082-084>086-088>090-092>094-250100-
SOUTH-CENTRAL ILLINOIS

CITY           SKY/WX    TMP DP  RH WIND       PRES   REMARKS
CARBONDALE     PTCLDY    56  50  80 CALM      30.05R
6HR MIN TEMP:  56; 6HR MAX TEMP:  71;

MT. VERNON     CLEAR     57  50  77 CALM      30.05S
$$

ILZ067-068-072-073-078-083-087-091-250100-
SOUTHEAST ILLINOIS

CITY           SKY/WX    TMP DP  RH WIND       PRES   REMARKS
LAWRENCEVILLE  PTCLDY    59  51  75 S5        30.03S
$$

ABBREVIATIONS USED IN REMARKS
   TC - TEMPERATURE IN CELSIUS
  WCI - WIND CHILL INDEX
   HX - HEAT INDEX
  VSB - VISIBILITY
$$




USA.gov is the U.S. government's official web portal to all federal, state and local government web resources and services.